Overview Statistics Trail Chart Weather Telemetry Raw packets
 

This is the latest recevied weather packets stored in our database for station/object SP9MUF-14. If no packets are shown the sender has not sent any weather packets the latest 10 day(s).

<< 39 40 41 42 43 44 45 >>
Time Temp. Humidity Pressure Rain* Wind** Luminosity Snow
1787930837 28.89° C 32% 1013.4 hPa 0 mm - 111 W/m² -
1787930544 28.89° C 33% 1013.4 hPa 0 mm - 114 W/m² -
1787930232 28.89° C 34% 1013.3 hPa 0 mm - 121 W/m² -
1787929930 28.89° C 33% 1013.4 hPa 0 mm - 138 W/m² -
1787929628 28.89° C 33% 1013.4 hPa 0 mm - 145 W/m² -
1787929325 28.89° C 32% 1013.5 hPa 0 mm - 166 W/m² -
1787929023 30° C 32% 1014 hPa 0 mm - 172 W/m² -
1787928418 28.89° C 32% 1013.7 hPa 0 mm - 194 W/m² -
1787928116 30° C 33% 1013.8 hPa 0 mm - 199 W/m² -
1787927813 30° C 31% 1013.7 hPa 0 mm - 228 W/m² -
1787927511 30° C 32% 1013.7 hPa 0 mm - 226 W/m² -
1787927209 30° C 32% 1014 hPa 0 mm - 256 W/m² -
1787926604 30° C 32% 1014 hPa 0 mm - 302 W/m² -
1787926302 30° C 33% 1013.9 hPa 0 mm - 279 W/m² -
1787926000 30° C 33% 1014.1 hPa 0 mm - 297 W/m² -
1787925697 30° C 33% 1014 hPa 0 mm - 307 W/m² -
1787925093 30° C 33% 1014.5 hPa 0 mm - 357 W/m² -
1787924790 30° C 34% 1014.4 hPa 0 mm - 378 W/m² -
1787924186 30° C 35% 1014.4 hPa 0 mm - 331 W/m² -
1787923884 28.89° C 34% 1014.6 hPa 0 mm - 355 W/m² -
1787923581 28.89° C 34% 1014.5 hPa 0 mm - 334 W/m² -
1787923279 28.89° C 35% 1014.4 hPa 0 mm - 333 W/m² -
1787922977 28.89° C 34% 1014.4 hPa 0 mm - 352 W/m² -
1787922674 28.89° C 35% 1014.4 hPa 0 mm - 461 W/m² -
1787922372 28.89° C 35% 1014.7 hPa 0 mm - 373 W/m² -

* Rain latest hour (hover to see other rain measurements)
** Current wind speed in m/s (hover to see current wind gust speed)